Weather History for KIPL - August, 2012

Change the Weather History Date:

Saturday, August 18, 2012

  Actual Average (KCZZ) Record (KCZZ)
Temperature  
Mean Temperature 92 °F 74 °F  
Max Temperature 102 °F 95 °F 105 °F (1950)
Min Temperature 82 °F 53 °F 38 °F (1976)
Degree Days  
Heating Degree Days 0 0  
Month to date heating degree days 0  
Since 1 June heating degree days 63  
Since 1 July heating degree days 7  
Cooling Degree Days 27 9  
Month to date cooling degree days 162  
Year to date cooling degree days 534  
Since 1 June cooling degree days 504  
Growing Degree Days 42 (Base 50)    
Moisture  
Dew Point 71 °F    
Average Humidity 54    
Maximum Humidity 79    
Minimum Humidity 34    
Precipitation  
Precipitation 0.00 in 0.02 in 0.55 in (1957)
Month to date precipitation 0.41  
Year to date precipitation 10.88  
Sea Level Pressure  
Sea Level Pressure 29.80 in    
Wind  
Wind Speed 5 mph (SE)    
Max Wind Speed 14 mph    
Max Gust Speed -    
Visibility 10 miles    
Events      
T = Trace of Precipitation, MM = Missing Value Source: NWS Daily Summary

Daily Weather History Graph

Daily Weather History Graph

Search for Another Location

Airport or City:

Trip Planner

Search our weather history database for the weather conditions in past years. The results will help you decide how hot, cold, wet, or windy it might be!

Date:

Astronomy

Aug. 18, 2012 Rise Set
Actual Time 6:08 AM PDT 7:23 PM PDT
Civil Twilight 5:42 AM PDT 7:49 PM PDT
Nautical Twilight 5:11 AM PDT 8:19 PM PDT
Astronomical Twilight 4:39 AM PDT 8:51 PM PDT
Moon 7:13 AM PDT (8/18) 7:51 PM PDT (8/18)
Length of Visible Light 14h 06m
Length of Day
13h 15m
New Moon, 2% of the Moon is Illuminated
Aug 18
New Moon
Aug 24
First Quarter
Aug 31
Full
Sep 8
Last Quarter
Sep 15
New

Hourly Weather History & Observations

Time (PDT) Temp. Heat Index Dew Point Humidity Pressure Visibility Wind Dir Wind Speed Gust Speed Precip Events Conditions
12:53 AM 84.9 °F 90.1 °F 71.1 °F 63% 29.85 in 10.0 mi SW 3.5 mph - N/A   Clear
1:53 AM 84.9 °F 90.1 °F 71.1 °F 63% 29.85 in 10.0 mi East 5.8 mph - N/A   Clear
2:53 AM 82.9 °F 88.0 °F 72.0 °F 69% 29.84 in 10.0 mi ESE 8.1 mph - N/A   Clear
3:53 AM 82.9 °F 88.8 °F 73.0 °F 72% 29.84 in 10.0 mi ESE 6.9 mph - N/A   Clear
4:53 AM 82.0 °F 87.4 °F 73.0 °F 74% 29.85 in 10.0 mi Calm Calm - N/A   Clear
5:53 AM 82.0 °F 87.4 °F 73.0 °F 74% 29.86 in 10.0 mi SE 3.5 mph - N/A   Clear
6:53 AM 82.0 °F 88.6 °F 75.0 °F 79% 29.87 in 10.0 mi East 4.6 mph - N/A   Clear
7:53 AM 82.9 °F 90.8 °F 75.9 °F 79% 29.87 in 10.0 mi SE 4.6 mph - N/A   Clear
8:53 AM 87.1 °F 96.3 °F 75.0 °F 67% 29.87 in 10.0 mi SSE 8.1 mph - N/A   Clear
9:53 AM 90.0 °F 96.9 °F 72.0 °F 55% 29.87 in 10.0 mi West 3.5 mph - N/A   Clear
10:53 AM 93.0 °F 100.1 °F 71.1 °F 49% 29.87 in 10.0 mi SSW 5.8 mph - N/A   Clear
11:53 AM 96.1 °F 102.9 °F 70.0 °F 43% 29.85 in 10.0 mi Calm Calm - N/A   Clear
12:53 PM 97.0 °F 102.8 °F 69.1 °F 40% 29.82 in 10.0 mi Variable 3.5 mph - N/A   Clear
1:53 PM 99.0 °F 106.2 °F 70.0 °F 39% 29.79 in 10.0 mi SE 3.5 mph - N/A   Clear
2:53 PM 100.0 °F 107.0 °F 69.1 °F 37% 29.75 in 10.0 mi Variable 3.5 mph - N/A   Clear
3:53 PM 102.0 °F 108.8 °F 69.1 °F 34% 29.73 in 10.0 mi SE 9.2 mph - N/A   Clear
4:53 PM 100.9 °F 108.2 °F 69.1 °F 36% 29.71 in 10.0 mi Calm Calm - N/A   Clear
5:53 PM 100.9 °F 108.2 °F 69.1 °F 36% 29.70 in 10.0 mi SSE 5.8 mph - N/A   Partly Cloudy
6:53 PM 99.0 °F 107.0 °F 71.1 °F 40% 29.70 in 10.0 mi SE 13.8 mph - N/A   Clear
7:53 PM 96.1 °F 103.5 °F 71.1 °F 44% 29.72 in 10.0 mi SE 11.5 mph - N/A   Clear
8:53 PM 93.9 °F 100.8 °F 71.1 °F 47% 29.74 in 10.0 mi SE 11.5 mph - N/A   Clear
9:53 PM 91.9 °F 99.5 °F 72.0 °F 52% 29.74 in 10.0 mi SE 13.8 mph - N/A   Clear
10:53 PM 91.9 °F 96.9 °F 69.1 °F 47% 29.75 in 10.0 mi SSE 9.2 mph - N/A   Clear
11:53 PM 91.0 °F 95.2 °F 68.0 °F 47% 29.74 in 10.0 mi SSE 4.6 mph - N/A   Clear